Terug naar catalogus

STARLINK-36073

ActiefCommunicatieVLEO
NORAD 66844·PAYLOAD·🇺🇸 United States

Gelanceerd Dec 2, 2025 vanaf Vandenberg Space Force Base

Loading…

Volgende Passages (komende 24 uur)

TLE

VersSource: CelesTrak SupGP

Epoch: Sep 15, 2026, 03:39 UTC

1 66844C 25280Z   26258.15256944 -.00015735  00000+0 -13186-2 0  2585
2 66844  70.0002 216.7878 0003589 265.7650 129.6982 14.98339281    10

Volg STARLINK-36073 in realtime met AllMySat

Download on the App Store